Location: Clanezzo
(45.7500°N, 9.6000°E)
Time: 22:18:36
(UTC+00:00)

ESTCUBE 1 - Pass Details

Date: 02 July 2022
Orbit: 646 x 657 km, 97.9° (Epoch: 07 August)

Event Time Altitude Azimuth Distance (km) Brightness Sun altitude
Exits shadow 22:02:23 25° 211° (SSW) 1,313 ? -18.7°
Maximum altitude 22:04:25 39° 263° (W) 979 ? -18.8°
Drops below altitude 10° 22:08:37 10° 332° (NNW) 2,059 ? -19.1°
Sets 22:10:58 0° 340° (NNW) 2,976 ? -19.2°
